Tracking 19245 objects as of 18-Aug-2018
HD Live streaming from Space Station
objects crossing your sky now

GEOS 2

Track GEOS 2 now!
GEOS 2 is classified as:


NORAD ID: 10981
Int'l Code: 1978-071A
Perigee: 36,021.6 km
Apogee: 36,070.9 km
Inclination: 12.1 °
Period: 1,449.0 minutes
Semi major axis: 42417 km
RCS: 2.0304 m2 (large)
Launch date: July 14, 1978
Source: European Space Agency (ESA)
Launch site: AIR FORCE EASTERN TEST RANGE (AFETR)
aabbcc
Your satellite tracking list
Your tracking list is empty




NASA's NSSDC Master Catalog

Two Line Element Set (TLE):
1 10981U 78071A   18228.85824434 +.00000045 +00000-0 +00000-0 0  9990
2 10981 012.0808 318.1417 0005776 307.7764 045.4070 00.99377003145552
Source of the keplerian elements: AFSPC